Погода Новоанненский

Погода Новоанненский : погода сейчас, прогноз погоды и архив. Всё, что Вы хотите узнать о погоде Новоанненский!

Поиск расширенной информации на нашем сайте:

Другие новости

Новости СМИ2

Главная страница сайта

Новости сайта

03.07.2017

Напоминаем, что на нашем специализированном сайте Метеоцентр.Азия вы можете получить высокодетализированные автоматические прогнозы погоды по пунктам России, СНГ и мира в авиационном формате (включающие направление и скорость ветра, видимость, явления погоды, количество и форму облачности, нижнюю и верхнюю границу облачности).


Погода Новоанненский - сегодня

Время (UTC), дата Ветер
(°,м/с) 
Видим.   Явления Облачность Т
(°С)
Тd
(°С)
f(%) Тe
(°С)
Pmin
(гПа)
dP
(гПа)
Po
(мм)
O2
(г/м3)
Тmin Tmax R s Состояние
почвы
18 16.02.18 120 (ЮВ) 20000 м    8/8 600 м 
[Sc]
-5.9 -10.3 71 -6  1036.3  -0.2  768  317           
21 16.02.18 110 (В) 20000 м    8/8 600 м 
[Sc]
-7.3 -10.7 77 -9  1035.5  -0.9  767  319           
00 17.02.18 100 (В) 20000 м    8/8 600 м 
[Sc]
-8.5 -11.4 80 -10  1034.3  -1.2  766  320           
06 17.02.18 110 (В) 20000 м    10/10 600 м 
[Cu hum]
-7.6 -11.9 71 -9  1032.8  -0.4  765  318           
09 17.02.18 120 (ЮВ) 20000 м    10/10 600 м 
[Cu hum]
-4.8 -11 62 -4  1031.3  -1.3  764  314           
12 17.02.18 110 (В) 20000 м    10/10 600 м 
[Cu hum]
-3 -9.4 61 -4  1029.4  -1.8  763  312           
18 17.02.18 110 (В) 20000 м    9/9 600 м 
[Sc diur, vesp]
-5.8 -9.5 75 -5  1027.9  -0.2  761  314           
21 17.02.18 100 (В) 4000 м  слаб. ливневой снег  10/10 600 м кучево-дожд. 
[Cb cap]
-6.1 -8.2 85 -9  1026.6  -1.3  760  314           
03 18.02.18 100 (В) 4000 м  слаб. ливневой снег  10/10 600 м кучево-дожд. 
[Cb cap]
-7.3 -8.8 89 -10  1024.1  -1.2  759  315  -7.3    равномерный
сухой снег
100% 
09 18.02.18 110 (В) 4000 м  слаб. ливневой снег  10/10 600 м кучево-дожд. 
[Cb cap]
-6.3 -8.7 83 -8  1022.9  -0.8  758  313           
18 18.02.18 170 (Ю) 20000 м  {ливн. осадки}  10/10 600 м 
[Sc diur, vesp]
-6.3 -8.5 84 -6  1023.2  0.5  758  313           
21 18.02.18 180 (Ю) 20000 м    10/10 600 м 
[Sc diur, vesp]
-6.2 -8.1 86 -6  1022.6  -0.6  757  313           
00 19.02.18 170 (Ю) 20000 м    10/10 600 м 
[Sc diur, vesp]
-5.9 -7.7 87 -6  1022.6  -0.6  758  313           
06 19.02.18 140 (ЮВ) 20000 м    10/10 600 м 
[Sc diur, vesp]
-4.8 -7 85 -4  1022.2  0.4  757  311           
09 19.02.18 190 (Ю) 20000 м    10/10 600 м 
[Sc diur, vesp]
-3 -6 80 -5  1022  0.1  757  309           
12 19.02.18 210 (ЮЗ) 20000 м    10/10 600 м 
[Sc diur, vesp]
-1.5 -5.1 76 -1  1021.5  -0.4  757  307           
18 19.02.18 170 (Ю) 20000 м    6/0 верхняя 
[Ci fib]
-7.2 -8.2 93 -7  1021.7  -0.2  757  314           
21 19.02.18 190 (Ю) 20000 м    6/0 верхняя 
[Ci fib]
-5.3 -6.5 91 -7  1020.8  -0.8  756  311           
03 20.02.18 240 (ЮЗ) 20000 м  {снег}  10/10 600 м 
[Sc diur, vesp]
-4.5 -5.4 93 -4  1020.3  -0.3  756  310  -7.8    0.4  12  равномерный
сухой снег
100% 
06 20.02.18 тихо ()   4000 м  слаб. снег  10/10 600 м 
[Frnb|Ns]
-3.2 -4.5 91 -3  1020.9  0.7  756  309           
09 20.02.18 320 (СЗ) 20000 м  {снег}  8/8 600 м 
[Cu med, cong]
-1.9 -6.2 72 -3  1021  0.2  756  308           
18 20.02.18 220 (ЮЗ) 20000 м    8/0 верхняя 
[Ci]
-10.7 -12.1 89 -11  1023.3  1.1  758  319           
21 20.02.18 190 (Ю) 20000 м    6/0 верхняя 
[Ci fib]
-12.5 -13.8 90 -12  1023.7  0.3  758  321           
00 21.02.18 240 (ЮЗ) 20000 м    8/0 верхняя 
[Ci]
-15 -16.7 87 -15  1024.4  0.6  758  325           
03 21.02.18 тихо ()   20000 м  [диам. изморози 10 мм]  8/0 верхняя 
[Ci fib]
-15.4 -17.2 86 -15  1024.9  0.4  759  325  -15.5      12  равномерный
сухой снег
100% 
Время (UTC), дата Ветер
(°,м/с) 
Видим.   Явления Облачность Т
(°С)
Тd
(°С)
f(%) Тe
(°С)
Pmin
(гПа)
dP
(гПа)
Po
(мм)
O2
(г/м3)
Тmin Tmax R s Состояние
почвы

Для получения пояснительной информации подведите курсор к названию столбца.

ПОГОДА Новоанненский - архив

Всё, что Вы хотите узнать о погоде Новоанненский - удобно и подробно!

Выберите нужную дату (начиная с 1 января 2015* года) и нажмите кнопку "Найти".
Будут отображены архивные сводки погоды по пункту Новоанненский, начиная с указанной даты.


Отображать данные в формате CSV (для использования в таблицах Excel)


Внимание! Наш архив погоды предназначен исключительно для личного некоммерческого использования в познавательных целях. Если Вам необходимы официальные справки о состоянии погоды (для производственных, юридических, коммерческих и т.п. целей), обращайтесь в органы Росгидромета.

*Примечание: данная дата относится к архиву по метеостанциям СССР (Россия, СНГ, Балтия).
Архив по метеостанциям Зарубежной Европы и Азии (кроме Китая) хранится 10 дней, по другим регионам земного шара (Китай, Африка, Америка, Австралия, Океания) - 1 день.

Новоанненский - район местоположения метеостанции


Название, широта, долгота, высота метеостанции:
Новоанненский 50.5°ш. 42.7°д. 98 м над ур. моря [Российская Федерация]

Дополнительная информация

В oтличие oт бoльшинства пoгoдных сайтoв мы публикуем пoдрoбную метеoинфoрмацию в детальнoм прoфессиoнальнoм фoрмате.

Характеристики температуры и влажнoсти вoздуха измеряются на высoте 2 м в тени вдали oт зданий и деревьев.
Скoрoсть ветра измеряется на высoте 10 м (на урoвне рoста челoвека скoрoсть ветра ниже в 1.5-2 раза). Если метеoстанция нахoдится в гoрoде или в лесу, тo скoрoсть ветра занижена на 2-4 м/с пo сравнению с oткрытым местoм. Скoрoсть ветра над акватoриями крупных рек и oзёр, а также на вершинах хoлмoв на 2-5 м/с выше, чем в oбычных услoвиях.
Атмoсфернoе давление в разных тoчках местнoсти мoжет значительнo oтличаться oт давления на метеoстанции, в зависимoсти oт услoвий рельефа (при пoдъёме на 10 м давление пoнижается примернo на 1 мм рт.ст.).